This demonstration page uses our WeatherBlox Daily Observations layout. Learn more.

Left ArrowRight Arrow

53.62937, 11.41316

Hourly Observations for January 17, 2016

Temp ( °F °C ) Dew Point ( °F °C ) Humidity (%) Winds ( mph kmh ) Pressure ( in mb ) Visibility ( mi km ) Precip ( " mm )
5:20 am 05:20 Cloudy with Light Snow 30 -1 28 -2 93 93 VRB 2 4 30.06 1018 2 4 N/A
5:50 am 05:50 Cloudy with Light Snow 28 -2 28 -2 100 100 NNW 1 2 30.06 1018 2 3 N/A
6:20 am 06:20 Cloudy with Mist and Fog 28 -2 28 -2 100 100 VRB 1 2 30.09 1019 2 3 N/A
6:50 am 06:50 Cloudy with Mist and Fog 28 -2 28 -2 100 100 VRB 1 2 30.09 1019 2 3 N/A
7:20 am 07:20 Cloudy with Mist and Fog 28 -2 28 -2 100 100 VRB 2 4 30.09 1019 2 4 N/A
7:50 am 07:50 Cloudy with Mist and Fog 30 -1 28 -2 93 93 NNW 3 6 30.12 1020 2 4 N/A
8:20 am 08:20 Cloudy with Light Snow 30 -1 28 -2 93 93 N 3 6 30.12 1020 2 3 N/A
8:50 am 08:50 Cloudy with Mist and Fog 28 -2 28 -2 100 100 NE 3 6 30.12 1020 2 4 N/A
9:20 am 09:20 Cloudy with Mist and Fog 30 -1 28 -2 93 93 ENE 2 4 30.15 1021 2 3 N/A
9:50 am 09:50 Mostly Cloudy with Mist and Fog 30 -1 28 -2 93 93 VRB 2 4 30.15 1021 2 3 N/A
10:20 am 10:20 Cloudy with Mist and Fog 30 -1 28 -2 93 93 N 3 6 30.18 1022 2 4 N/A
10:50 am 10:50 Cloudy 30 -1 28 -2 93 93 NNW 5 7 30.18 1022 4 6 N/A
11:20 am 11:20 Cloudy 28 -2 27 -3 93 93 NNW 7 11 30.18 1022 30 48 N/A
11:50 am 11:50 Cloudy 28 -2 27 -3 93 93 NNW 6 9 30.21 1023 30 48 N/A
12:20 pm 12:20 Cloudy 28 -2 27 -3 93 93 NNW 6 9 30.21 1023 30 48 N/A
12:50 pm 12:50 Cloudy 28 -2 27 -3 93 93 NW 5 7 30.21 1023 30 48 N/A
1:20 pm 13:20 Cloudy 30 -1 27 -3 86 86 NW 5 7 30.21 1023 30 48 N/A
1:50 pm 13:50 Cloudy 28 -2 27 -3 93 93 NW 7 11 30.21 1023 30 48 N/A
2:20 pm 14:20 Cloudy with Light Snow 28 -2 27 -3 93 93 NW 7 11 30.21 1023 3 5 N/A
2:50 pm 14:50 Cloudy with Light Snow 28 -2 27 -3 93 93 NW 7 11 30.21 1023 3 5 N/A
3:20 pm 15:20 Cloudy with Light Snow 28 -2 25 -4 86 86 NW 6 9 30.21 1023 6 9 N/A
3:50 pm 15:50 Cloudy with Light Snow 28 -2 25 -4 86 86 NNW 5 7 30.21 1023 30 48 N/A
4:20 pm 16:20 Cloudy with Light Snow 28 -2 25 -4 86 86 NW 7 11 30.24 1024 30 48 N/A
4:50 pm 16:50 Cloudy 28 -2 23 -5 80 80 NW 5 7 30.24 1024 30 48 N/A
5:20 pm 17:20 Cloudy 27 -3 23 -5 86 86 WNW 5 7 30.24 1024 30 48 N/A
5:50 pm 17:50 Cloudy 27 -3 21 -6 80 80 W 3 6 30.27 1025 30 48 N/A

Powered by AerisWeather